DW7214 Weather Reports


Display with metric or nautical units.
time (UTC)temp
F
wind
direction
speed
MPH
gust
MPH
rain 1hr
in
rain 24hr
in
rain mn
in
humidity
%
barometer
mb
20210117212818 46 338 3.0 0.0 0.00 0.00 0.02 100 1028.9
20210117212331 46 338 3.0 0.0 0.00 0.00 0.02 100 1028.9
20210117211822 46 355 2.0 0.0 0.00 0.00 0.02 100 1029.1
20210117211319 46 11 2.0 0.0 0.00 0.00 0.02 100 1029.1
20210117210838 46 12 2.0 0.0 0.00 0.00 0.02 100 1029.1
20210117210318 47 16 1.0 0.0 0.00 0.00 0.02 100 1029.1
20210117205810 47 138 0.0 0.0 0.00 0.00 0.02 100 1029.1
20210117205322 47 140 1.0 0.0 0.00 0.00 0.02 100 1029.1
20210117204829 47 140 2.0 0.0 0.00 0.00 0.02 100 1029.3
20210117204328 47 157 1.0 0.0 0.00 0.00 0.02 100 1029.3
20210117203813 47 158 0.0 0.0 0.00 0.00 0.02 100 1029.3
20210117203308 46 158 0.0 0.0 0.00 0.00 0.02 100 1029.4
20210117202820 46 158 0.0 0.0 0.00 0.00 0.02 100 1029.4
20210117202316 46 158 0.0 0.0 0.00 0.00 0.02 100 1029.4
20210117201811 46 158 1.0 0.0 0.00 0.00 0.02 100 1029.5
20210117201320 46 158 1.0 0.0 0.00 0.00 0.02 100 1029.5
20210117200843 46 158 0.0 0.0 0.00 0.00 0.02 100 1029.5
20210117200338 46 158 0.0 0.0 0.00 0.00 0.02 100 1029.7
20210117195814 46 158 1.0 0.0 0.00 0.00 0.02 100 1029.7
20210117195324 46 158 0.0 0.0 0.00 0.00 0.02 100 1029.7
20210117194820 46 161 0.0 0.0 0.00 0.00 0.02 100 1029.7
20210117194320 46 161 0.0 0.0 0.00 0.00 0.02 100 1029.7
20210117193821 46 161 0.0 0.0 0.00 0.00 0.02 100 1029.7
20210117193317 46 161 0.0 0.0 0.00 0.00 0.02 100 1029.6
20210117192815 46 161 0.0 0.0 0.00 0.00 0.02 100 1029.6
20210117192323 46 161 0.0 0.0 0.00 0.00 0.02 100 1029.6
20210117191813 46 161 0.0 0.0 0.00 0.00 0.02 100 1029.5
20210117191323 46 161 0.0 0.0 0.00 0.00 0.02 100 1029.5
20210117190823 46 161 0.0 0.0 0.00 0.00 0.02 100 1029.5
20210117190326 46 161 0.0 0.0 0.00 0.00 0.02 100 1029.6
20210117185816 46 161 0.0 0.0 0.00 0.00 0.02 100 1029.6
20210117185314 46 161 0.0 0.0 0.00 0.00 0.02 100 1029.6
20210117184824 45 161 0.0 0.0 0.00 0.00 0.02 100 1029.3
20210117184320 45 161 0.0 0.0 0.00 0.00 0.02 100 1029.3
20210117183830 45 161 0.0 0.0 0.00 0.00 0.02 100 1029.3
20210117183318 45 161 0.0 0.0 0.00 0.00 0.02 100 1029.3
20210117182821 45 161 0.0 0.0 0.00 0.00 0.02 100 1029.3
20210117182323 45 161 0.0 0.0 0.00 0.00 0.02 100 1029.3
20210117181820 45 161 0.0 0.0 0.00 0.00 0.02 100 1029.3
20210117181312 45 161 0.0 0.0 0.00 0.00 0.02 100 1029.3
20210117180832 45 161 0.0 0.0 0.00 0.00 0.02 100 1029.3
20210117180309 45 161 0.0 0.0 0.00 0.00 0.02 100 1029.1
20210117175819 45 161 0.0 0.0 0.00 0.00 0.02 100 1029.1
20210117175321 45 161 0.0 0.0 0.00 0.00 0.02 100 1029.1
20210117174829 45 161 0.0 0.0 0.00 0.00 0.02 100 1028.9
20210117174313 44 161 0.0 0.0 0.00 0.00 0.02 100 1028.9
20210117173824 44 161 0.0 0.0 0.00 0.00 0.02 100 1028.9
20210117173317 44 161 0.0 0.0 0.00 0.00 0.02 100 1028.9
20210117172816 44 161 0.0 0.0 0.00 0.00 0.02 100 1028.9
20210117172328 44 161 0.0 0.0 0.00 0.00 0.02 100 1028.9
20210117171818 44 161 0.0 0.0 0.00 0.00 0.02 100 1028.8
20210117171327 44 161 0.0 0.0 0.00 0.00 0.02 100 1028.8
20210117170825 44 161 0.0 0.0 0.00 0.00 0.02 100 1028.8
20210117170330 44 161 0.0 0.0 0.00 0.00 0.02 100 1028.6
20210117165816 44 161 1.0 0.0 0.00 0.00 0.02 100 1028.6
20210117165308 44 161 1.0 0.0 0.00 0.00 0.02 100 1028.6
20210117164819 44 161 1.0 0.0 0.00 0.00 0.02 100 1028.3
20210117164311 44 161 1.0 0.0 0.00 0.00 0.02 100 1028.3
20210117163826 44 160 0.0 0.0 0.00 0.00 0.02 100 1028.3
20210117163321 44 159 0.0 0.0 0.00 0.00 0.02 100 1028.0
20210117162811 44 159 0.0 0.0 0.00 0.00 0.02 100 1028.0
20210117162322 44 159 1.0 0.0 0.00 0.00 0.02 100 1028.0
20210117161815 44 159 1.0 0.0 0.00 0.00 0.02 100 1027.9
20210117161324 44 159 0.0 0.0 0.00 0.00 0.02 100 1027.9
20210117160825 43 159 0.0 0.0 0.00 0.00 0.02 100 1027.9
20210117160325 43 159 0.0 0.0 0.00 0.00 0.02 100 1027.7
20210117155817 43 159 0.0 0.0 0.00 0.00 0.02 100 1027.7
20210117155313 43 159 1.0 0.0 0.00 0.00 0.02 100 1027.7
20210117154825 43 159 1.0 0.0 0.00 0.00 0.02 100 1027.3
20210117154316 43 159 1.0 0.0 0.00 0.00 0.02 100 1027.3
20210117153824 43 159 1.0 0.0 0.00 0.00 0.02 100 1027.3
20210117153321 43 159 0.0 0.0 0.00 0.00 0.02 100 1027.2
20210117152815 43 159 2.0 0.0 0.00 0.00 0.02 100 1027.2
20210117152324 43 159 3.0 0.0 0.00 0.00 0.02 100 1027.2
20210117151816 43 159 2.0 0.0 0.00 0.00 0.02 100 1027.3
20210117151307 43 159 1.0 0.0 0.00 0.00 0.02 100 1027.3
20210117150832 43 159 0.0 0.0 0.00 0.00 0.02 100 1027.3
20210117150315 43 159 0.0 0.0 0.00 0.00 0.02 100 1027.3
20210117145806 43 159 0.0 0.0 0.00 0.00 0.02 100 1027.3
20210117145321 43 159 0.0 0.0 0.00 0.00 0.02 100 1027.3
20210117144810 42 159 0.0 0.0 0.00 0.00 0.02 100 1027.2
20210117144322 42 159 0.0 0.0 0.00 0.00 0.02 100 1027.2
20210117143810 42 159 0.0 0.0 0.00 0.00 0.02 100 1027.2
20210117143325 42 159 0.0 0.0 0.00 0.00 0.02 100 1027.2
20210117142819 42 159 0.0 0.0 0.00 0.00 0.02 100 1027.2
20210117142325 42 159 0.0 0.0 0.00 0.00 0.02 100 1027.2
20210117141824 42 159 0.0 0.0 0.00 0.00 0.02 100 1027.1
20210117141317 42 159 0.0 0.0 0.00 0.00 0.02 100 1027.1
20210117140837 42 159 0.0 0.0 0.00 0.00 0.02 100 1027.1
20210117140319 42 159 0.0 0.0 0.00 0.00 0.02 100 1027.0
20210117135814 42 159 0.0 0.0 0.00 0.00 0.02 100 1027.0
20210117135323 42 159 0.0 0.0 0.00 0.00 0.02 100 1027.0
20210117134813 42 159 0.0 0.0 0.00 0.00 0.02 100 1027.1
20210117134324 42 159 0.0 0.0 0.00 0.00 0.02 100 1027.1
20210117133817 42 159 0.0 0.0 0.00 0.00 0.02 100 1027.1
20210117133310 42 159 0.0 0.0 0.00 0.00 0.02 100 1027.2
20210117132822 42 159 0.0 0.0 0.00 0.00 0.02 100 1027.2
20210117132312 42 159 0.0 0.0 0.00 0.00 0.02 100 1027.2
20210117131824 42 159 0.0 0.0 0.00 0.00 0.02 100 1026.9
20210117131316 42 159 1.0 0.0 0.00 0.00 0.02 100 1026.9
20210117130838 42 159 2.0 0.0 0.00 0.00 0.02 100 1026.9
20210117130320 42 159 1.0 0.0 0.00 0.00 0.02 100 1026.7
20210117125811 42 159 0.0 0.0 0.00 0.00 0.02 100 1026.7
20210117125322 42 159 0.0 0.0 0.00 0.00 0.02 100 1026.7
20210117124818 42 159 1.0 0.0 0.00 0.00 0.02 100 1026.8
20210117124309 42 159 1.0 0.0 0.00 0.00 0.02 100 1026.8
20210117123818 42 159 0.0 0.0 0.00 0.00 0.02 100 1026.8
20210117123313 42 159 0.0 0.0 0.00 0.00 0.02 100 1027.1
20210117122825 42 159 0.0 0.0 0.00 0.00 0.02 100 1027.1
20210117122317 42 159 0.0 0.0 0.00 0.00 0.01 100 1027.1
20210117121812 42 159 0.0 0.0 0.00 0.00 0.01 100 1026.8
20210117121321 42 159 0.0 0.0 0.00 0.00 0.01 100 1026.8
20210117120828 42 159 0.0 0.0 0.00 0.00 0.01 100 1026.8
20210117120309 42 159 0.0 0.0 0.00 0.00 0.01 100 1027.4
20210117115820 42 159 0.0 0.0 0.00 0.00 0.01 100 1027.4
20210117115314 42 159 0.0 0.0 0.00 0.00 0.01 100 1027.4
20210117114823 42 159 0.0 0.0 0.00 0.00 0.01 100 1027.1
20210117114315 42 159 0.0 0.0 0.00 0.00 0.01 100 1027.1
20210117113821 42 159 0.0 0.0 0.00 0.00 0.01 100 1027.1
20210117113312 42 159 0.0 0.0 0.00 0.00 0.01 100 1027.2
20210117112826 42 159 1.0 0.0 0.00 0.00 0.00 100 1027.2
20210117112317 42 159 2.0 0.0 0.00 0.00 0.00 100 1027.2
20210117111838 42 159 3.0 0.0 0.00 0.00 0.00 100 1027.1
20210117111332 42 159 3.0 0.0 0.00 0.00 0.00 100 1027.1
20210117110836 42 157 2.0 0.0 0.00 0.00 0.00 100 1027.1
20210117110324 42 155 1.0 0.0 0.00 0.00 0.00 100 1027.2
20210117105816 42 155 0.0 0.0 0.00 0.00 0.00 100 1027.2
20210117105307 42 155 0.0 0.0 0.00 0.00 0.00 100 1027.2
20210117104819 42 155 0.0 0.0 0.00 0.00 0.00 100 1026.9
20210117104315 42 155 0.0 0.0 0.00 0.00 0.00 100 1026.9
20210117103822 42 155 1.0 0.0 0.00 0.00 0.00 100 1026.9
20210117103321 42 155 1.0 0.0 0.00 0.00 0.00 100 1026.5
20210117102817 42 155 1.0 0.0 0.00 0.00 0.00 100 1026.5
20210117102324 42 155 1.0 0.0 0.00 0.00 0.00 100 1026.5
20210117101815 42 155 0.0 0.0 0.00 0.00 0.00 100 1026.2
20210117101307 42 155 0.0 0.0 0.00 0.00 0.00 100 1026.2
20210117100828 42 155 0.0 0.0 0.00 0.00 0.00 100 1026.2
20210117100309 42 155 0.0 0.0 0.00 0.00 0.00 100 1025.9
20210117095821 42 155 0.0 0.0 0.00 0.00 0.00 100 1025.9
20210117095322 42 155 1.0 0.0 0.00 0.00 0.00 100 1025.9
20210117094808 42 155 1.0 0.0 0.00 0.00 0.00 100 1026.2
20210117094320 42 155 1.0 0.0 0.00 0.00 0.00 100 1026.2
20210117093827 42 155 1.0 0.0 0.00 0.00 0.00 100 1026.2
20210117093320 42 155 1.0 0.0 0.00 0.00 0.00 100 1026.2
20210117092816 42 155 0.0 0.0 0.00 0.00 0.00 100 1026.2
20210117092328 42 155 0.0 0.0 0.00 0.00 0.00 100 1026.2
20210117091816 42 155 0.0 0.0 0.00 0.00 0.00 100 1026.2
20210117091307 42 155 0.0 0.0 0.00 0.00 0.00 100 1026.2
20210117090827 42 155 0.0 0.0 0.00 0.00 0.00 100 1026.2
20210117090313 42 155 0.0 0.0 0.00 0.00 0.00 100 1026.2
20210117085824 42 155 0.0 0.0 0.00 0.00 0.00 100 1026.2
20210117085321 42 155 0.0 0.0 0.00 0.00 0.00 100 1026.2
20210117084808 42 155 0.0 0.0 0.00 0.00 0.00 100 1026.2
20210117084322 42 155 0.0 0.0 0.00 0.00 0.00 100 1026.2
20210117083830 42 155 1.0 0.0 0.00 0.00 0.00 100 1026.2
20210117083322 42 155 1.0 0.0 0.00 0.00 0.00 100 1026.1
20210117082823 42 149 1.0 0.0 0.00 0.00 0.00 100 1026.1
20210117082312 42 149 1.0 0.0 0.00 0.00 0.00 100 1026.1
20210117081821 43 149 1.0 0.0 0.00 0.00 0.00 100 1026.2
20210117081310 43 149 1.0 0.0 0.00 0.00 0.00 100 1026.2
20210117080832 43 149 0.0 0.0 0.00 0.00 0.00 100 1026.2
20210117080318 43 149 0.0 0.0 0.00 0.00 0.00 100 1025.9
20210117075808 43 149 0.0 0.0 0.00 0.00 0.00 100 1025.9
20210117075318 43 149 0.0 0.0 0.00 0.00 0.00 100 1025.9
20210117074810 43 149 0.0 0.0 0.00 0.00 0.00 100 1025.8
20210117074322 43 149 1.0 0.0 0.00 0.00 0.00 100 1025.8
20210117073810 43 149 2.0 0.0 0.00 0.00 0.00 100 1025.8
20210117073312 43 149 2.0 0.0 0.00 0.00 0.00 100 1025.8
20210117072822 43 149 1.0 0.0 0.00 0.00 0.00 100 1025.8
20210117072317 43 149 0.0 0.0 0.00 0.00 0.00 100 1025.8
20210117071806 43 148 0.0 0.0 0.00 0.00 0.00 100 1025.6
20210117071322 43 148 0.0 0.0 0.00 0.00 0.00 100 1025.6
20210117070841 43 148 0.0 0.0 0.00 0.00 0.00 100 1025.6
20210117070321 43 148 0.0 0.0 0.00 0.00 0.00 100 1025.6
20210117065813 43 148 1.0 0.0 0.00 0.00 0.00 100 1025.6
20210117065334 43 148 0.0 0.0 0.00 0.00 0.00 100 1025.6
20210117064821 43 148 0.0 0.0 0.00 0.00 0.00 100 1025.5
20210117064312 43 148 0.0 0.0 0.00 0.00 0.00 100 1025.5
20210117063822 43 148 0.0 0.0 0.00 0.00 0.00 100 1025.5
20210117063315 43 148 0.0 0.0 0.00 0.00 0.00 100 1025.2
20210117062815 43 148 0.0 0.0 0.00 0.00 0.00 100 1025.2
20210117062320 43 148 0.0 0.0 0.00 0.00 0.00 100 1025.2
20210117061810 43 148 0.0 0.0 0.00 0.00 0.00 100 1024.9
20210117061322 43 148 0.0 0.0 0.00 0.00 0.00 100 1024.9
20210117060823 43 148 0.0 0.0 0.00 0.00 0.00 100 1024.9
20210117060312 43 148 0.0 0.0 0.00 0.00 0.00 100 1024.9
20210117055842 43 148 0.0 0.0 0.00 0.00 0.00 100 1024.9
20210117055325 43 148 0.0 0.0 0.00 0.00 0.00 100 1024.9
20210117054827 43 148 0.0 0.0 0.00 0.00 0.00 100 1024.6
20210117054315 43 148 0.0 0.0 0.00 0.00 0.00 100 1024.6
20210117053822 43 148 0.0 0.0 0.00 0.00 0.00 100 1024.6
20210117053315 43 148 0.0 0.0 0.00 0.00 0.00 100 1025.2
20210117052814 43 148 0.0 0.0 0.00 0.00 0.00 100 1025.2
20210117052319 43 148 0.0 0.0 0.00 0.00 0.00 100 1025.2
20210117051817 43 148 0.0 0.0 0.00 0.00 0.00 100 1025.0
20210117051307 43 148 1.0 0.0 0.00 0.00 0.00 100 1025.0
20210117050829 43 148 1.0 0.0 0.00 0.00 0.00 100 1025.0
20210117050309 43 148 2.0 0.0 0.00 0.00 0.00 100 1025.2
20210117045821 43 148 1.0 0.0 0.00 0.00 0.00 100 1025.2
20210117045307 43 159 1.0 0.0 0.00 0.00 0.00 100 1025.2
20210117044819 43 159 1.0 0.0 0.00 0.00 0.00 100 1025.6
20210117044308 43 149 2.0 0.0 0.00 0.00 0.00 100 1025.6
20210117043815 43 146 2.0 0.0 0.00 0.00 0.00 100 1025.6
20210117043329 43 140 0.0 0.0 0.00 0.00 0.00 100 1025.2
20210117042838 43 140 0.0 0.0 0.00 0.00 0.00 100 1025.2
20210117042311 43 140 0.0 0.0 0.00 0.00 0.00 100 1025.2
20210117041820 43 140 2.0 0.0 0.00 0.00 0.00 100 1025.6
20210117041309 43 140 2.0 0.0 0.00 0.00 0.00 100 1025.6
20210117040828 43 119 1.0 0.0 0.00 0.00 0.00 100 1025.6
20210117040326 43 45 0.0 0.0 0.00 0.00 0.00 100 1025.3
20210117035817 43 45 0.0 0.0 0.00 0.00 0.00 100 1025.3
20210117035324 43 45 0.0 0.0 0.00 0.00 0.00 100 1025.3
20210117034816 43 45 0.0 0.0 0.00 0.00 0.00 100 1025.5
20210117034311 43 45 0.0 0.0 0.00 0.00 0.00 100 1025.5
20210117033817 43 45 0.0 0.0 0.00 0.00 0.00 100 1025.5
20210117033312 43 45 0.0 0.0 0.00 0.00 0.00 100 1025.7
20210117032824 43 45 0.0 0.0 0.00 0.00 0.00 100 1025.7
20210117032311 43 45 0.0 0.0 0.00 0.00 0.00 100 1025.7
20210117031823 43 45 0.0 0.0 0.00 0.00 0.00 100 1025.6
20210117031311 43 45 0.0 0.0 0.00 0.00 0.00 100 1025.6
20210117030829 43 45 0.0 0.0 0.00 0.00 0.00 100 1025.6
20210117030315 43 45 0.0 0.0 0.00 0.00 0.00 100 1025.7
20210117025829 43 45 0.0 0.0 0.00 0.00 0.00 100 1025.7
20210117025320 43 45 0.0 0.0 0.00 0.00 0.00 100 1025.7
20210117024814 43 45 0.0 0.0 0.00 0.00 0.00 100 1026.1
20210117024324 43 45 0.0 0.0 0.00 0.00 0.00 100 1026.1
20210117023818 43 45 0.0 0.0 0.00 0.00 0.00 100 1026.1
20210117023328 43 45 0.0 0.0 0.00 0.00 0.00 100 1025.6
20210117022816 43 45 0.0 0.0 0.00 0.00 0.00 100 1025.6
20210117022310 43 45 0.0 0.0 0.00 0.00 0.00 100 1025.6
20210117021822 43 45 0.0 0.0 0.00 0.00 0.00 100 1025.6
20210117021312 43 45 0.0 0.0 0.00 0.00 0.00 100 1025.6
20210117020840 43 45 0.0 0.0 0.00 0.00 0.00 100 1025.6
20210117020318 43 45 0.0 0.0 0.00 0.00 0.00 100 1025.6
20210117015811 43 45 0.0 0.0 0.00 0.00 0.00 100 1025.6
20210117015322 43 45 0.0 0.0 0.00 0.00 0.00 100 1025.6
20210117014813 43 45 0.0 0.0 0.00 0.00 0.00 100 1025.9
20210117014341 43 45 0.0 0.0 0.00 0.00 0.00 100 1025.9
20210117013823 43 45 0.0 0.0 0.00 0.00 0.00 100 1025.9
20210117013309 43 45 0.0 0.0 0.00 0.00 0.00 100 1025.6
20210117012829 43 45 0.0 0.0 0.00 0.00 0.00 100 1025.6
20210117012314 43 45 0.0 0.0 0.00 0.00 0.00 100 1025.6
20210117011831 43 45 0.0 0.0 0.00 0.00 0.00 100 1025.7
20210117011318 43 45 0.0 0.0 0.00 0.00 0.00 100 1025.7
20210117010844 43 45 0.0 0.0 0.00 0.00 0.00 100 1025.7
20210117010320 43 45 1.0 0.0 0.00 0.00 0.00 100 1025.5
20210117005813 43 45 2.0 0.0 0.00 0.00 0.00 100 1025.5
20210117005326 43 46 1.0 0.0 0.00 0.00 0.00 100 1025.5
20210117004816 43 46 1.0 0.0 0.00 0.00 0.00 100 1026.2
20210117004307 43 46 0.0 0.0 0.00 0.00 0.00 100 1026.2
20210117003821 43 46 0.0 0.0 0.00 0.00 0.00 100 1026.2
20210117003341 43 46 1.0 0.0 0.00 0.00 0.00 100 1026.2
20210117002824 43 46 0.0 0.0 0.00 0.00 0.00 100 1026.2
20210117002323 43 46 0.0 0.0 0.00 0.00 0.00 100 1026.2
20210117001810 44 46 1.0 0.0 0.00 0.00 0.00 100 1026.1
20210117001322 44 46 3.0 0.0 0.00 0.00 0.00 100 1026.1
20210117000821 44 46 3.0 0.0 0.00 0.00 0.00 100 1026.1
20210117000326 44 45 2.0 0.0 0.00 0.00 0.00 100 1026.0
20210116235813 44 69 1.0 0.0 0.00 0.00 0.00 100 1026.0
20210116235311 44 69 2.0 0.0 0.00 0.00 0.00 100 1026.0
20210116234821 44 100 2.0 0.0 0.00 0.00 0.00 100 1026.2
20210116234313 44 128 1.0 0.0 0.00 0.00 0.00 100 1026.2
20210116233820 44 174 0.0 0.0 0.00 0.00 0.00 100 1026.2
20210116233320 44 174 0.0 0.0 0.00 0.00 0.00 100 1026.1
20210116232810 44 174 0.0 0.0 0.00 0.00 0.00 100 1026.1
20210116232318 44 174 0.0 0.0 0.00 0.00 0.00 100 1026.1
20210116231811 44 174 0.0 0.0 0.00 0.00 0.00 100 1026.1
20210116231326 44 174 0.0 0.0 0.00 0.00 0.00 100 1026.1
20210116230826 43 174 1.0 0.0 0.00 0.00 0.00 100 1026.1
20210116230308 43 174 1.0 0.0 0.00 0.00 0.00 100 1025.8
20210116225823 43 174 2.0 0.0 0.00 0.00 0.00 100 1025.8
20210116225313 43 174 2.0 0.0 0.00 0.00 0.00 100 1025.8
20210116224823 43 174 1.0 0.0 0.00 0.00 0.00 100 1025.7
20210116224324 43 174 1.0 0.0 0.00 0.00 0.00 100 1025.7
20210116223825 43 174 1.0 0.0 0.00 0.00 0.00 100 1025.7
20210116223315 43 174 1.0 0.0 0.00 0.00 0.00 100 1025.7
20210116222814 43 174 2.0 0.0 0.00 0.00 0.00 100 1025.7
20210116222321 43 174 2.0 0.0 0.00 0.00 0.00 100 1025.7
20210116221820 43 174 3.0 0.0 0.00 0.00 0.00 100 1025.2
20210116221327 43 157 1.0 0.0 0.00 0.00 0.00 100 1025.2
20210116220825 43 142 1.0 0.0 0.00 0.00 0.00 100 1025.2
20210116220313 43 142 2.0 0.0 0.00 0.00 0.00 100 1025.4
20210116215830 43 142 2.0 0.0 0.00 0.00 0.00 100 1025.4
20210116215311 43 59 1.0 0.0 0.00 0.00 0.00 100 1025.4
20210116214835 42 58 1.0 0.0 0.00 0.00 0.00 100 1025.5
20210116214319 43 57 0.0 0.0 0.00 0.00 0.00 100 1025.5
20210116213822 43 48 0.0 0.0 0.00 0.00 0.00 100 1025.5
20210116213320 43 48 0.0 0.0 0.00 0.00 0.00 100 1025.3